�N����,����,�~����,�C��,���x,�C��,����,���ϕ���,�ő�u�ԕ���,�ő厞����,���˗�,�I�_���x,�n�����x,�ő啗���N��,DTYPE
"23/06/27","00:10",0.0,22.4,95.7,1009.0,297.6,0.3,0.6,334.4,0.00,21.7,21.8,"00:08:08",1
"23/06/27","00:20",0.0,22.5,95.7,1009.3,344.0,0.3,0.9,345.3,0.00,21.8,22.0,"00:13:04",1
"23/06/27","00:30",0.0,22.5,95.8,1009.0,342.2,0.5,0.8,335.6,0.00,21.8,21.9,"00:21:36",1
"23/06/27","00:40",0.0,22.5,95.8,1008.8,331.3,0.6,1.1,334.1,0.00,21.8,21.9,"00:36:24",1
"23/06/27","00:50",0.0,22.5,95.9,1008.8,337.2,0.6,1.0,340.9,0.00,21.9,21.8,"00:49:12",1
"23/06/27","01:00",0.0,22.4,96.0,1008.6,289.4,0.6,0.9,315.6,0.00,21.8,21.9,"00:50:40",1
"23/06/27","01:10",0.0,22.4,96.0,1008.3,271.3,0.3,0.6,297.0,0.00,21.8,21.9,"01:00:24",1
"23/06/27","01:20",0.0,22.3,96.0,1008.6,314.4,0.7,1.3,333.7,0.00,21.7,22.0,"01:15:36",1
"23/06/27","01:30",0.0,22.2,96.1,1008.3,288.5,0.5,0.8,318.0,0.00,21.6,21.8,"01:20:48",1
"23/06/27","01:40",0.0,22.2,96.1,1008.6,292.0,0.5,0.6,317.9,0.00,21.6,21.7,"01:33:20",1
"23/06/27","01:50",0.0,22.2,96.2,1008.3,303.6,0.6,0.9,316.3,0.00,21.6,21.8,"01:45:20",1
"23/06/27","02:00",0.0,22.2,96.2,1008.8,318.9,0.8,1.2,340.7,0.00,21.6,22.0,"01:57:20",1
"23/06/27","02:10",0.0,22.1,96.3,1008.6,307.9,0.5,1.1,352.4,0.00,21.5,21.8,"02:00:40",1
"23/06/27","02:20",0.0,22.1,96.3,1008.8,283.6,0.5,0.9,265.0,0.00,21.5,21.9,"02:18:16",1
"23/06/27","02:30",0.0,22.1,96.4,1008.6,277.4,0.6,0.9,264.8,0.00,21.5,21.7,"02:22:00",1
"23/06/27","02:40",0.0,22.1,96.4,1008.8,332.2,0.6,1.2,317.6,0.00,21.5,21.9,"02:33:04",1
"23/06/27","02:50",0.0,22.1,96.5,1008.8,284.2,0.7,1.2,310.9,0.00,21.6,21.8,"02:48:56",1
"23/06/27","03:00",0.0,22.1,96.5,1008.6,302.0,0.6,1.2,333.9,0.00,21.6,21.8,"02:50:16",1
"23/06/27","03:10",0.0,22.1,96.5,1008.6,282.3,0.5,0.9,300.8,0.00,21.6,21.9,"03:02:08",1
"23/06/27","03:20",0.0,22.1,96.5,1008.3,308.2,0.6,0.9,304.6,0.00,21.6,21.7,"03:13:12",1
"23/06/27","03:30",0.0,22.1,96.5,1008.6,308.9,0.6,1.0,335.6,0.00,21.6,21.9,"03:24:48",1
"23/06/27","03:40",0.0,22.2,96.6,1008.8,336.8,0.7,1.1,342.8,0.00,21.7,21.8,"03:34:32",1
"23/06/27","03:50",0.0,22.1,96.6,1008.6,288.5,0.6,0.8,332.9,0.00,21.6,21.9,"03:40:08",1
"23/06/27","04:00",0.0,22.1,96.6,1008.6,279.9,0.5,0.8,291.9,0.00,21.6,22.0,"03:53:44",1
"23/06/27","04:10",0.0,22.1,96.7,1008.6,324.3,0.6,0.9,335.3,0.00,21.6,21.7,"04:03:44",1
"23/06/27","04:20",0.0,22.2,96.7,1008.8,340.8,0.7,1.3,343.9,0.00,21.7,21.8,"04:13:20",1
"23/06/27","04:30",0.0,22.2,96.7,1008.6,286.2,0.7,1.2,316.2,0.00,21.7,21.6,"04:22:56",1
"23/06/27","04:40",0.0,22.0,96.7,1008.8,296.8,0.6,0.9,267.9,0.00,21.5,21.8,"04:35:04",1
"23/06/27","04:50",0.0,22.1,96.8,1009.0,301.6,0.1,0.5,324.0,0.00,21.6,21.7,"04:44:00",1
"23/06/27","05:00",0.0,22.1,96.8,1009.3,324.0,0.6,1.2,297.9,0.00,21.6,21.7,"04:56:40",1
"23/06/27","05:10",0.0,22.2,96.8,1009.3,338.4,0.6,1.0,336.0,0.00,21.7,22.0,"05:03:04",1
"23/06/27","05:20",0.0,22.2,96.8,1009.3,324.5,0.5,0.8,329.2,0.00,21.7,21.8,"05:10:08",1
"23/06/27","05:30",0.0,22.2,96.8,1009.3,256.2,0.3,1.0,253.5,0.00,21.7,21.9,"05:26:40",1
"23/06/27","05:40",0.0,22.2,96.8,1009.0,271.9,0.6,1.0,267.3,0.00,21.7,21.8,"05:35:36",1
"23/06/27","05:50",0.0,22.2,96.9,1009.0,347.1,0.3,1.0,3.7,0.00,21.7,21.7,"05:46:40",1
"23/06/27","06:00",0.0,22.3,96.9,1009.3,324.2,0.6,1.0,310.8,0.00,21.8,21.7,"05:54:16",1
"23/06/27","06:10",0.0,22.3,96.9,1009.0,315.0,0.7,0.9,341.8,0.00,21.8,21.8,"06:04:24",1
"23/06/27","06:20",0.0,22.3,96.9,1009.3,299.8,0.6,0.6,265.6,0.00,21.8,21.8,"06:10:40",1
"23/06/27","06:30",0.0,22.4,97.0,1009.5,293.8,0.7,1.1,315.1,0.00,21.9,21.7,"06:29:12",1
"23/06/27","06:40",0.0,22.4,97.0,1009.5,327.0,0.5,1.3,343.8,0.00,21.9,21.7,"06:30:56",1
"23/06/27","06:50",0.0,22.5,97.0,1009.5,282.3,0.3,0.6,271.1,0.00,22.0,21.7,"06:48:48",1
"23/06/27","07:00",0.0,22.6,97.0,1009.5,279.7,0.3,0.8,278.5,0.02,22.1,22.0,"06:50:24",1
"23/06/27","07:10",0.0,22.9,97.0,1009.5,300.9,0.1,0.5,319.9,0.06,22.4,21.9,"07:06:16",1
"23/06/27","07:20",0.0,23.3,97.0,1009.7,318.6,0.1,0.8,243.2,0.13,22.8,21.8,"07:10:02",1
"23/06/27","07:30",0.0,23.6,97.0,1009.5,213.6,0.2,0.6,254.4,0.16,23.1,21.6,"07:20:16",1
"23/06/27","07:40",0.0,23.7,96.8,1009.5,340.3,0.1,0.9,256.9,0.10,23.2,21.7,"07:30:02",1
"23/06/27","07:50",0.0,23.5,96.9,1009.3,268.2,0.5,1.0,245.7,0.07,23.0,21.9,"07:40:08",1
"23/06/27","08:00",0.0,23.6,96.8,1009.5,248.5,0.5,0.8,252.1,0.06,23.1,21.7,"07:54:56",1
"23/06/27","08:10",0.0,23.7,96.9,1009.5,322.6,0.3,0.9,255.0,0.06,23.2,21.6,"08:00:56",1
"23/06/27","08:20",0.0,24.0,96.9,1009.5,304.0,0.5,1.3,328.1,0.09,23.5,21.6,"08:18:40",1
"23/06/27","08:30",0.0,24.1,96.8,1009.0,321.0,0.7,1.8,335.6,0.09,23.6,21.7,"08:21:52",1
"23/06/27","08:40",0.0,24.0,96.8,1009.7,347.9,0.8,1.7,351.2,0.06,23.5,21.7,"08:38:32",1
"23/06/27","08:50",0.0,24.1,96.8,1009.5,338.4,0.8,1.6,339.2,0.06,23.6,21.9,"08:44:48",1
"23/06/27","09:00",0.0,23.9,96.8,1009.5,337.3,1.0,1.6,337.6,0.04,23.4,22.0,"08:57:04",1
"23/06/27","09:10",0.0,24.2,96.8,1009.5,340.8,0.5,1.2,342.3,0.05,23.7,21.7,"09:00:40",1
"23/06/27","09:20",0.0,24.2,96.8,1009.5,327.3,0.6,1.3,321.3,0.06,23.7,22.0,"09:16:24",1
"23/06/27","09:30",0.0,24.5,96.7,1009.0,303.0,0.6,1.3,341.0,0.11,24.0,21.8,"09:29:20",1
"23/06/27","09:40",0.0,24.7,96.8,1009.3,319.2,0.7,1.3,346.6,0.18,24.2,22.0,"09:38:32",1
"23/06/27","09:50",0.0,24.9,96.5,1009.3,340.2,0.7,1.4,343.8,0.13,24.3,21.7,"09:45:28",1
"23/06/27","10:00",0.0,24.7,96.2,1009.0,314.6,0.7,1.3,344.7,0.11,24.1,22.0,"09:53:44",1
"23/06/27","10:10",0.0,24.7,95.9,1009.0,276.9,0.6,1.4,259.5,0.15,24.0,22.0,"10:09:44",1
"23/06/27","10:20",0.0,24.3,95.0,1009.3,201.0,1.0,2.1,203.0,0.19,23.5,21.9,"10:19:20",1
"23/06/27","10:30",0.0,25.8,95.1,1008.8,200.3,0.5,1.4,219.6,0.30,25.0,21.9,"10:21:04",1
"23/06/27","10:40",0.0,26.3,94.7,1008.6,6.1,1.0,2.1,24.2,0.38,25.4,21.9,"10:35:52",1
"23/06/27","10:50",0.0,27.0,93.0,1009.0,49.4,0.8,2.0,14.1,0.40,25.8,22.0,"10:43:52",1
"23/06/27","11:00",0.0,27.4,90.9,1009.3,18.3,0.7,1.7,356.4,0.27,25.8,22.1,"10:57:12",1
"23/06/27","11:10",0.0,27.6,88.6,1009.0,358.5,0.8,2.0,328.3,0.25,25.6,21.9,"11:07:36",1
"23/06/27","11:20",0.0,29.1,84.8,1009.0,150.6,0.5,1.1,181.5,0.42,26.3,22.1,"11:14:48",1
"23/06/27","11:30",0.0,29.8,79.0,1009.5,182.3,0.7,1.6,180.9,0.40,25.8,21.9,"11:26:24",1
"23/06/27","11:40",0.0,30.1,75.3,1009.7,142.3,0.6,1.6,12.8,0.37,25.3,22.1,"11:39:20",1
"23/06/27","11:50",0.0,30.4,73.5,1009.7,34.5,0.7,2.5,10.0,0.42,25.2,22.0,"11:46:16",1
"23/06/27","12:00",0.0,30.2,72.0,1009.7,1.6,0.6,2.0,358.8,0.26,24.6,22.1,"11:58:56",1
"23/06/27","12:10",0.0,30.0,72.9,1009.0,5.2,1.1,2.9,348.0,0.29,24.6,22.1,"12:03:04",1
"23/06/27","12:20",0.0,30.9,72.6,1009.0,353.5,1.0,1.9,347.0,0.49,25.4,22.1,"12:11:52",1
"23/06/27","12:30",0.0,31.1,70.8,1009.3,20.6,1.1,2.1,2.7,0.39,25.2,22.2,"12:24:16",1
"23/06/27","12:40",0.0,31.2,71.8,1008.8,158.7,0.8,1.8,135.7,0.34,25.5,22.0,"12:35:12",1
"23/06/27","12:50",0.0,31.4,69.0,1009.0,58.1,0.7,1.9,86.7,0.32,25.1,22.5,"12:41:20",1
"23/06/27","13:00",0.0,31.5,69.0,1009.0,306.6,0.6,1.2,1.5,0.35,25.2,22.3,"12:59:36",1
"23/06/27","13:10",0.0,31.5,68.8,1008.8,338.2,0.8,1.8,315.8,0.35,25.1,22.6,"13:04:48",1
"23/06/27","13:20",0.0,31.3,70.4,1008.6,297.1,0.6,1.9,351.8,0.21,25.3,22.4,"13:13:20",1
"23/06/27","13:30",0.0,31.1,71.0,1008.8,227.9,0.7,1.8,344.2,0.20,25.3,22.5,"13:27:36",1
"23/06/27","13:40",0.0,31.3,71.0,1008.3,219.8,0.5,1.7,341.6,0.24,25.4,22.4,"13:31:04",1
"23/06/27","13:50",0.0,31.6,69.2,1008.3,182.9,1.3,3.3,240.7,0.38,25.3,22.5,"13:48:24",1
"23/06/27","14:00",0.0,32.0,68.9,1008.6,183.0,1.1,2.5,186.0,0.33,25.6,22.6,"13:54:48",1
"23/06/27","14:10",0.0,32.2,67.1,1008.6,178.7,1.0,2.7,187.1,0.33,25.4,22.7,"14:08:24",1
"23/06/27","14:20",0.0,31.6,68.1,1008.3,171.5,1.2,3.5,206.0,0.27,25.0,22.7,"14:12:08",1
"23/06/27","14:30",0.0,32.1,66.0,1008.1,211.5,1.1,2.7,236.1,0.32,25.0,23.0,"14:27:28",1
"23/06/27","14:40",0.0,32.5,64.1,1008.1,305.4,0.8,2.4,247.4,0.38,24.9,22.6,"14:33:36",1
"23/06/27","14:50",0.0,31.8,65.8,1008.1,179.7,1.5,3.1,217.8,0.17,24.6,22.8,"14:42:16",1
"23/06/27","15:00",0.0,31.7,67.6,1008.1,188.6,1.6,3.7,127.4,0.26,25.0,23.0,"14:55:44",1
"23/06/27","15:10",0.2,32.7,63.9,1007.6,220.4,1.2,2.9,234.0,0.39,25.0,22.9,"15:01:28",1
"23/06/27","15:20",0.0,32.6,62.9,1007.4,185.3,1.7,3.1,234.3,0.35,24.7,22.9,"15:10:32",1
"23/06/27","15:30",0.0,32.1,64.0,1007.1,179.0,1.8,3.4,212.2,0.22,24.5,23.0,"15:22:24",1
"23/06/27","15:40",0.0,31.9,64.1,1007.4,231.4,1.3,3.3,158.0,0.20,24.3,23.2,"15:32:16",1
"23/06/27","15:50",0.0,32.2,62.6,1007.4,237.1,1.5,3.3,188.8,0.31,24.2,22.9,"15:44:24",1
"23/06/27","16:00",0.0,32.2,60.5,1007.6,241.2,1.8,5.5,215.9,0.25,23.6,23.2,"15:50:02",1
"23/06/27","16:10",0.0,31.8,62.5,1007.1,223.0,2.0,4.7,235.7,0.18,23.8,23.2,"16:00:48",1
"23/06/27","16:20",0.0,31.6,62.7,1006.9,220.8,2.0,4.1,225.6,0.17,23.7,23.4,"16:14:16",1
"23/06/27","16:30",0.0,32.4,61.1,1007.1,218.2,1.8,4.1,210.2,0.35,24.0,23.2,"16:29:44",1
"23/06/27","16:40",0.0,32.8,58.6,1007.6,219.2,2.0,4.5,221.5,0.38,23.7,23.2,"16:36:00",1
"23/06/27","16:50",0.0,32.8,59.3,1008.1,197.2,2.2,4.1,189.8,0.32,23.9,23.3,"16:49:28",1
"23/06/27","17:00",0.0,32.0,60.8,1007.8,199.4,2.5,4.3,214.0,0.20,23.5,23.2,"16:52:40",1
"23/06/27","17:10",0.0,32.4,59.8,1007.1,232.8,1.5,4.0,192.6,0.22,23.6,23.4,"17:06:56",1
"23/06/27","17:20",0.0,32.2,59.1,1007.1,220.7,2.6,5.2,198.5,0.20,23.2,23.4,"17:12:16",1
"23/06/27","17:30",0.0,32.2,59.5,1007.4,210.5,2.1,4.4,226.0,0.22,23.4,23.4,"17:20:40",1
"23/06/27","17:40",0.0,32.7,59.9,1007.4,205.7,1.7,4.4,194.4,0.16,23.9,23.4,"17:30:32",1
"23/06/27","17:50",0.0,32.2,59.0,1007.4,223.2,1.1,4.0,233.8,0.04,23.2,23.7,"17:49:44",1
"23/06/27","18:00",0.0,31.4,61.2,1006.9,206.0,1.7,3.7,233.1,0.02,23.1,23.6,"17:50:24",1
"23/06/27","18:10",0.0,30.8,64.6,1006.9,188.0,1.5,2.7,190.3,0.02,23.4,23.5,"18:03:52",1
"23/06/27","18:20",0.0,30.6,66.0,1006.4,181.6,1.3,2.6,206.4,0.02,23.6,23.6,"18:10:56",1
"23/06/27","18:30",0.0,30.8,65.7,1006.4,176.2,1.6,2.9,178.5,0.02,23.7,23.6,"18:23:28",1
"23/06/27","18:40",0.0,31.1,65.3,1006.2,200.8,2.0,3.5,227.0,0.02,23.9,23.5,"18:35:04",1
"23/06/27","18:50",0.0,30.6,66.0,1006.2,204.3,2.0,3.9,224.7,0.01,23.6,23.5,"18:46:32",1
"23/06/27","19:00",0.0,30.4,67.2,1006.2,192.0,2.1,3.6,215.8,0.01,23.7,23.4,"18:58:56",1
"23/06/27","19:10",0.0,30.1,68.1,1006.4,212.1,1.5,2.7,187.8,0.00,23.6,23.6,"19:00:08",1
"23/06/27","19:20",0.0,29.7,69.1,1006.4,241.8,1.0,2.5,206.5,0.00,23.5,23.6,"19:16:24",1
"23/06/27","19:30",0.0,29.5,70.2,1006.0,269.9,0.3,0.9,335.5,0.00,23.5,23.6,"19:27:28",1
"23/06/27","19:40",0.0,29.0,71.7,1006.0,223.8,0.2,1.2,239.3,0.00,23.4,23.6,"19:39:44",1
"23/06/27","19:50",0.0,28.7,73.2,1006.0,283.2,0.8,1.6,227.5,0.00,23.5,23.5,"19:42:40",1
"23/06/27","20:00",0.0,28.2,74.5,1006.7,303.8,0.7,1.2,335.4,0.00,23.3,23.4,"19:50:16",1
"23/06/27","20:10",0.0,27.8,75.7,1006.4,275.6,0.6,1.3,342.0,0.00,23.2,23.3,"20:09:52",1
"23/06/27","20:20",0.0,27.7,76.6,1006.7,334.0,0.8,1.4,342.9,0.00,23.3,23.3,"20:10:32",1
"23/06/27","20:30",0.0,27.2,77.3,1006.9,330.1,1.0,1.7,341.5,0.00,22.9,23.4,"20:27:28",1
"23/06/27","20:40",0.0,26.9,77.3,1006.9,296.3,0.5,1.1,331.7,0.00,22.6,23.5,"20:30:08",1
"23/06/27","20:50",0.0,26.8,77.9,1006.9,306.4,0.6,1.2,323.5,0.00,22.7,23.4,"20:43:04",1
"23/06/27","21:00",0.0,26.8,79.0,1007.4,346.7,0.8,1.3,346.2,0.00,22.9,23.3,"20:51:20",1
"23/06/27","21:10",0.0,26.6,80.4,1006.9,346.2,1.0,1.7,351.6,0.00,23.0,23.4,"21:06:08",1
"23/06/27","21:20",0.0,26.0,81.5,1007.4,339.7,0.7,1.4,343.7,0.00,22.6,23.3,"21:11:04",1
"23/06/27","21:30",0.0,25.7,82.2,1007.6,326.2,0.3,0.8,312.7,0.00,22.5,23.2,"21:26:16",1
"23/06/27","21:40",0.0,25.5,83.0,1007.8,273.5,0.6,1.0,257.4,0.00,22.4,23.3,"21:34:16",1
"23/06/27","21:50",0.0,25.4,83.2,1007.6,272.3,0.7,1.4,238.4,0.00,22.4,23.2,"21:41:28",1
"23/06/27","22:00",0.0,25.6,83.4,1007.8,332.0,0.8,1.2,341.0,0.00,22.6,23.5,"21:51:04",1
"23/06/27","22:10",0.0,25.5,83.9,1007.8,325.1,0.8,1.2,346.0,0.00,22.6,23.2,"22:05:52",1
"23/06/27","22:20",0.0,25.2,84.4,1008.1,317.0,1.1,1.9,325.4,0.00,22.4,23.4,"22:15:20",1
"23/06/27","22:30",0.0,25.1,84.8,1008.3,328.0,0.6,1.3,4.2,0.00,22.4,23.4,"22:22:08",1
"23/06/27","22:40",0.0,24.9,85.3,1008.6,288.2,0.5,0.9,315.4,0.00,22.3,23.2,"22:34:48",1
"23/06/27","22:50",0.0,24.8,85.6,1008.3,301.0,0.3,1.3,251.9,0.00,22.3,23.2,"22:46:56",1
"23/06/27","23:00",0.0,24.9,85.6,1008.3,287.7,0.8,1.7,262.8,0.00,22.4,23.0,"22:57:44",1
"23/06/27","23:10",0.0,25.1,85.8,1008.3,329.1,1.1,1.7,328.5,0.00,22.6,23.2,"23:01:12",1
"23/06/27","23:20",0.0,24.8,86.1,1008.6,300.7,0.8,2.2,322.7,0.00,22.4,23.2,"23:18:24",1
"23/06/27","23:30",0.0,24.7,86.3,1008.1,304.4,0.8,1.7,352.0,0.00,22.3,23.2,"23:26:00",1
"23/06/27","23:40",0.0,24.7,86.4,1008.3,329.6,0.8,1.6,346.2,0.00,22.3,22.9,"23:33:44",1
"23/06/27","23:50",0.0,24.6,86.6,1008.1,323.0,0.7,1.3,324.3,0.00,22.3,23.1,"23:40:08",1
"23/06/27","24:00",0.0,24.5,87.0,1008.6,309.0,1.0,1.7,318.5,0.00,22.2,23.1,"23:59:04",1
